Flag for Canada Weather past 2 weeks in Lethbridge, Alberta, Canada

Now
52 °F

Clear.


Feels Like: 46 °F
Forecast: 42 / 68 °F
Wind: 18 mph from West

Location: Lethbridge

Current Time: Aug 31, 2014 at 3:19:50 AM

Latest Report: Aug 31, 2014 at 3:00 AM


Visibility: 9 mi

Pressure: 29.74 "Hg

Humidity: 67%

Dew point: 41 °F

Location of LethbridgeLocation

Historic Weather in Lethbridge — Graph

°F

Lethbridge temperature yesterday

Maximum temperature yesterday: 73 °F (at 4:00 PM)
Minimum temperature yesterday: 54 °F (at 8:00 AM)
Average temperature yesterday: 62 °F

Past Weeks' High & Low Weather Summary

 TemperatureHumidityPressure
High86 °F (Aug 18, 5:00 PM)100% (Aug 18, 4:00 AM)30.36 "Hg (Aug 18, 4:00 AM)
Low43 °F (Aug 25, 5:00 AM)25% (Aug 19, 4:00 PM)29.60 "Hg (Aug 19, 5:00 PM)
Average60 °F73%29.99 "Hg
* Reported Aug 16 2:00 AM — Aug 31 2:00 AM, Lethbridge, Weather by CustomWeather, © 2014

Note: Actual official high and low records may vary slightly from our data, if they occured in-between our weather recording intervals... More about our weather records

Advertising

Lethbridge weather history for previous 24 hours

 ConditionsComfort  
Time TempWeatherWind HumidityBarometerVisibility
2:00 AM
Aug 31
55 °FClear.17 mph59%29.73 "Hg9 mi
1:00 AM54 °FClear.13 mph58%29.72 "Hg9 mi
12:00 AM54 °FClear.13 mph58%29.72 "Hg9 mi
11:00 PM
Aug 30
59 °FClear.15 mph45%29.70 "Hg9 mi
10:00 PM57 °FPassing clouds.10 mph48%29.71 "Hg15 mi
9:00 PM55 °FPartly sunny.9 mph59%29.71 "Hg15 mi
8:00 PM63 °FOvercast.13 mph42%29.70 "Hg40 mi
7:00 PM66 °FMore clouds than sun.13 mph35%29.69 "Hg40 mi
6:00 PM70 °FMore clouds than sun.13 mph31%29.68 "Hg40 mi
5:00 PM72 °FBroken clouds.20 mph31%29.67 "Hg40 mi
4:00 PM73 °FBroken clouds.21 mph29%29.66 "Hg40 mi
3:00 PM70 °FBroken clouds.8 mph40%29.68 "Hg40 mi
2:00 PM68 °FPartly sunny.8 mph49%29.72 "Hg40 mi
1:00 PM68 °FScattered clouds.6 mph49%29.72 "Hg40 mi
12:00 PM64 °FScattered clouds.3 mph64%29.75 "Hg40 mi
11:00 AM63 °FScattered clouds.No wind64%29.77 "Hg40 mi
10:00 AM61 °FPartly sunny.6 mph68%29.77 "Hg40 mi
9:00 AM59 °FPartly sunny.6 mph72%29.77 "Hg40 mi
8:00 AM54 °FBroken clouds.7 mph77%29.76 "Hg30 mi
7:00 AM57 °FPartly cloudy.13 mph63%29.73 "Hg30 mi
6:00 AM59 °FOvercast.15 mph59%29.70 "Hg20 mi
5:00 AM61 °FClear.16 mph55%29.70 "Hg9 mi
4:00 AM61 °FClear.21 mph55%29.69 "Hg9 mi
3:00 AM63 °FClear.25 mph52%29.67 "Hg9 mi
Weather by CustomWeather, © 2014

See weather overviewHow to use our weather pages